Theta_e
306 304 303 302 301 301 299 297 297 296 299 299 298 299 298 298 298 299 300 300 301 301 301 301 301 302 302 302 303 303 305 304 301 301 302 305 309 310 311 308 304 303 302 303 303 304 305 304 304 304 306 305 306 308 308 309 319 332 334 331 332 332 333 335 333 330 327 324 320 319 318 319 318 316 314 314 312 310 310 307 307 307 306 306 306 307 309 313
306 304 303 304 302 302 299 297 297 296 298 299 298 298 298 298 298 298 300 300 301 301 302 301 301 302 302 302 303 304 306 304 301 301 301 305 309 310 310 308 306 305 302 303 304 304 304 305 303 303 307 307 306 309 309 308 317 333 334 329 330 331 329 329 330 326 324 323 320 319 318 319 319 317 316 317 316 315 315 311 308 309 307 307 307 307 309 310
305 305 305 305 303 302 300 296 296 296 298 299 298 298 298 298 298 298 298 299 301 301 302 302 301 302 302 302 302 304 307 305 302 301 301 305 308 310 310 309 307 305 303 304 304 304 304 305 302 304 309 308 307 309 310 311 316 328 333 332 331 331 328 326 327 324 322 321 319 319 317 317 316 315 316 317 316 315 314 311 310 310 307 307 307 306 308 308
305 305 305 304 302 301 300 297 296 296 297 299 298 298 298 298 298 298 298 298 300 302 302 302 302 302 302 302 303 304 306 307 304 301 301 305 308 309 310 309 307 305 304 304 304 304 304 304 302 304 309 311 310 308 309 313 316 321 327 331 328 328 330 326 323 321 320 319 318 317 316 316 313 313 314 316 318 314 308 307 308 307 305 307 307 306 306 307
305 305 305 304 301 299 299 297 295 296 297 298 298 298 298 298 298 297 298 297 299 301 302 302 301 302 302 302 305 305 307 307 303 300 301 305 307 307 307 306 306 304 304 304 303 304 304 304 303 307 311 311 309 307 309 311 317 324 321 323 324 324 326 322 320 321 319 318 316 316 317 313 309 309 311 317 321 313 305 303 304 303 303 305 307 306 306 306
305 305 305 304 301 298 298 296 296 296 296 297 298 298 298 298 298 297 297 297 299 300 302 302 301 302 301 303 304 303 307 306 301 301 301 304 307 305 304 304 304 304 304 304 303 305 306 307 308 310 311 310 309 308 308 309 319 330 322 318 321 321 321 318 318 319 317 317 317 314 312 308 308 307 305 309 311 305 302 302 302 302 302 304 306 306 306 306
304 305 305 304 301 298 298 296 296 297 296 297 298 298 298 298 297 297 297 297 298 300 301 301 302 302 301 303 304 303 307 304 300 301 301 303 306 305 304 303 303 304 304 303 305 308 309 313 313 310 309 308 309 308 309 314 320 325 320 315 316 316 316 314 313 314 314 314 312 311 309 309 311 310 304 303 303 301 302 303 303 303 303 304 305 305 305 305
304 305 304 304 302 299 298 297 297 296 296 297 297 298 298 297 298 297 297 298 299 300 301 301 302 302 301 305 308 308 306 302 300 302 301 303 306 306 305 303 303 305 305 304 306 309 310 313 313 310 312 309 307 306 311 320 321 319 317 314 313 312 311 311 310 311 310 310 309 309 309 308 308 308 305 303 303 302 302 303 303 303 302 303 304 304 304 303
304 305 304 304 303 300 298 297 297 296 297 297 297 298 297 298 298 298 298 298 299 300 300 301 301 301 302 304 309 310 305 301 301 302 301 303 305 306 306 303 303 304 305 305 304 307 310 311 311 310 313 313 309 306 313 324 323 317 315 313 312 312 311 311 311 311 310 309 309 309 309 308 307 309 308 304 303 303 303 305 304 303 302 302 302 302 301 301
304 304 304 304 303 300 298 297 296 296 296 297 297 297 298 299 298 298 299 299 300 299 300 301 300 302 302 303 309 309 302 301 302 301 301 303 305 306 306 304 304 303 305 306 304 306 308 309 310 309 310 312 311 308 316 323 319 314 313 312 312 312 312 312 311 311 311 310 310 311 310 310 309 312 312 305 303 304 304 305 305 303 303 302 301 300 300 299
304 304 304 304 303 300 297 297 296 296 297 297 297 298 299 299 299 300 300 300 300 299 300 300 300 302 302 304 309 306 300 301 302 301 302 304 306 306 306 306 304 303 304 305 305 304 306 307 308 309 309 310 312 313 317 317 313 313 314 313 313 313 312 312 313 312 312 311 311 312 313 312 310 311 309 304 303 304 304 305 305 304 303 302 301 301 300 299
304 304 304 304 303 300 297 297 296 296 297 297 298 299 300 300 300 300 300 301 301 300 301 301 302 303 303 304 305 303 300 301 301 301 303 304 306 306 306 306 305 304 303 304 305 304 305 306 308 311 311 311 315 317 316 313 313 315 315 316 315 314 314 314 314 314 313 314 313 316 321 315 310 308 305 304 305 305 305 305 305 305 304 302 301 300 300 299
303 303 304 304 303 300 298 297 297 297 297 298 299 300 302 301 300 301 300 301 302 303 303 303 303 305 307 305 303 301 301 302 302 302 303 304 306 306 306 306 305 305 304 303 304 304 305 305 308 312 312 314 319 318 315 314 315 316 315 317 318 319 318 315 315 315 315 316 313 319 328 319 308 306 304 304 305 305 305 304 304 305 304 303 301 300 299 299
303 303 302 302 302 300 298 296 297 297 296 298 300 301 301 301 302 302 301 300 301 302 302 303 304 304 306 304 302 301 301 302 303 303 303 304 305 306 305 305 305 305 304 303 303 305 306 306 307 310 312 315 318 316 315 317 317 317 319 320 321 324 320 315 316 316 317 316 313 319 328 318 309 306 304 305 305 305 305 303 304 305 304 304 303 303 302 299
303 302 301 301 301 298 297 296 297 297 297 297 299 301 300 301 302 303 303 301 300 301 302 303 303 303 305 304 302 301 302 302 302 303 303 304 305 305 305 305 305 304 304 303 304 306 306 307 309 313 315 314 316 317 318 320 319 319 323 324 322 322 319 315 315 317 319 315 311 319 323 316 310 306 304 305 305 306 304 302 303 305 306 305 304 304 304 301
303 303 301 299 300 298 296 296 297 297 297 297 298 300 300 301 302 303 304 302 302 302 301 303 302 303 306 304 301 301 301 301 302 303 303 305 305 305 305 304 305 304 305 304 305 307 306 308 311 312 315 316 317 319 320 322 321 321 323 323 320 320 318 316 315 315 318 317 314 317 319 315 312 306 304 304 305 306 303 302 303 305 307 305 304 304 304 302
303 303 302 299 299 298 297 296 296 297 298 297 298 300 299 300 301 302 303 303 304 302 301 302 300 303 305 302 301 301 300 300 302 303 303 304 304 304 304 304 304 304 305 306 307 308 307 311 313 312 316 320 319 319 322 324 324 321 321 322 319 318 319 318 318 313 312 318 317 314 315 312 309 305 304 304 305 306 303 302 303 304 306 305 305 305 303 303
302 302 302 300 299 299 298 296 296 297 298 297 297 300 300 299 300 301 302 303 303 303 303 301 302 305 305 303 301 300 300 301 303 303 303 304 303 304 305 305 304 304 308 309 307 309 309 311 314 315 319 322 321 320 324 324 322 321 320 321 319 319 321 319 318 313 310 314 315 314 313 308 305 304 305 304 303 304 303 303 304 303 304 304 305 305 303 303
302 302 302 301 300 300 298 296 296 298 298 297 297 300 299 299 301 301 301 302 303 304 303 302 302 304 305 303 301 300 301 302 303 303 303 303 304 305 304 305 306 307 310 311 309 309 311 313 317 319 318 317 316 317 322 322 319 320 318 319 320 320 320 316 313 311 309 311 311 312 312 307 306 305 304 304 302 302 302 303 304 304 304 305 305 305 304 304
302 302 302 301 301 300 298 296 297 298 298 298 298 298 298 301 306 306 302 301 302 301 302 303 302 302 303 303 300 300 302 303 303 303 303 304 304 305 304 305 310 311 311 312 310 308 310 312 314 313 312 312 311 309 315 319 316 317 318 319 320 318 317 314 311 308 309 313 309 307 309 308 307 304 303 304 302 302 303 303 305 305 305 306 306 305 305 304
302 302 301 302 301 299 297 297 298 298 298 299 298 299 301 305 308 305 301 300 300 299 300 301 300 300 301 300 300 300 302 304 304 303 303 304 304 305 305 307 313 312 309 310 310 309 309 311 309 307 307 308 307 307 312 317 316 317 318 319 318 317 315 312 311 308 309 314 309 306 309 308 305 303 303 303 302 302 303 303 305 305 305 307 307 307 306 303
302 301 300 300 299 297 297 298 299 298 299 300 301 303 304 305 305 302 302 302 299 298 299 300 299 300 300 300 300 299 302 305 306 305 303 304 306 307 307 310 311 309 309 311 311 311 311 311 308 306 305 305 305 308 314 316 317 317 317 318 316 315 314 312 311 308 308 312 309 308 310 307 303 303 303 303 302 303 303 304 306 306 306 307 308 308 306 303
302 300 297 297 297 297 298 300 300 300 300 301 303 304 302 302 303 301 302 304 301 298 300 301 300 301 301 301 299 300 304 305 305 306 303 305 308 308 308 310 309 308 309 310 310 312 312 310 307 305 307 309 309 312 316 316 316 317 317 317 315 314 316 315 311 308 308 310 309 309 311 308 305 304 303 303 303 304 305 305 306 307 307 308 308 307 306 304
300 298 296 296 297 298 300 300 301 302 302 303 303 302 301 302 303 302 301 303 303 300 300 300 299 300 301 300 299 301 305 304 304 304 302 305 308 307 308 308 308 308 307 307 309 311 311 307 304 307 310 313 314 314 315 316 315 316 315 315 315 315 316 315 311 310 310 310 310 313 316 314 310 308 308 306 305 305 305 304 304 305 307 308 306 305 306 305
298 297 295 296 298 299 300 300 301 303 303 303 302 300 300 301 301 301 303 305 305 302 299 299 299 299 299 299 300 301 305 305 303 302 302 304 306 308 308 306 308 308 306 307 310 310 310 305 305 312 313 312 314 314 314 315 315 315 315 314 314 315 314 313 313 316 316 315 315 317 322 322 314 313 312 308 307 307 306 304 304 305 306 306 305 304 306 305
297 296 296 297 298 300 302 301 301 302 303 301 300 299 299 300 299 300 306 309 306 302 301 301 301 300 299 299 301 302 306 307 303 301 303 304 304 306 309 309 309 309 306 308 309 308 308 306 308 315 314 313 314 314 313 313 315 316 314 313 313 313 314 315 317 319 320 319 316 314 322 326 319 317 315 310 309 310 308 307 306 306 306 305 305 305 305 305
297 296 296 298 298 300 304 302 300 304 306 302 299 299 299 300 299 299 306 310 305 302 304 303 301 300 300 299 300 303 306 306 304 303 302 303 303 305 310 311 311 310 307 308 310 308 307 308 311 313 314 315 314 314 313 313 316 316 313 312 313 314 316 317 320 319 317 317 315 314 320 325 323 322 317 311 311 313 312 311 309 307 306 306 305 304 304 305
298 297 296 299 299 300 302 301 302 304 305 302 299 298 300 300 299 302 309 309 305 303 303 303 301 300 302 301 301 305 304 303 305 304 301 302 303 305 309 308 308 309 307 308 311 308 306 307 309 309 311 314 313 312 312 314 316 314 312 313 314 315 317 318 319 319 317 317 317 315 316 322 325 322 315 312 314 317 317 316 313 310 308 307 305 303 303 304
298 298 297 298 300 300 299 300 302 302 300 299 299 299 299 299 299 306 313 308 304 302 301 303 301 301 305 304 303 306 304 303 305 304 302 302 302 305 307 305 305 307 306 307 309 307 305 305 305 306 309 311 310 309 312 316 315 312 312 314 315 315 316 317 318 318 320 322 320 315 314 320 326 322 316 313 315 318 318 317 315 311 310 307 304 304 303 303
298 299 297 298 300 300 301 299 299 299 298 298 300 300 299 300 307 314 312 305 302 301 302 303 301 301 305 305 303 305 304 303 305 305 303 302 301 304 305 304 304 306 305 306 307 306 305 304 304 305 305 305 306 307 311 315 313 312 315 316 317 318 318 320 321 320 323 323 320 315 312 316 325 324 319 317 318 319 317 317 317 313 312 310 308 306 304 303
298 299 298 298 298 300 303 302 298 298 298 298 299 299 299 303 311 312 304 300 303 304 303 304 302 302 304 303 302 304 304 304 304 306 304 302 302 302 304 306 307 309 309 308 308 307 305 305 305 305 303 303 307 309 310 313 314 315 318 317 317 319 319 321 321 320 324 323 318 314 310 313 322 323 319 319 318 318 317 318 319 317 316 314 310 307 304 302
298 300 299 298 297 297 301 301 298 297 299 299 298 302 307 308 306 302 300 301 303 302 299 301 303 303 304 304 302 302 304 302 302 304 303 302 302 300 302 304 305 309 312 311 311 310 308 307 304 304 305 303 308 314 312 314 318 317 318 318 317 318 319 321 320 318 322 319 313 312 311 314 322 323 320 317 315 315 314 313 314 314 316 315 311 307 304 302
298 300 300 298 298 297 297 298 297 297 298 298 301 308 314 311 302 298 301 301 299 298 298 300 303 302 303 305 303 302 304 301 300 302 301 301 302 301 301 299 299 307 312 310 311 311 311 309 305 306 308 304 308 315 315 315 318 317 319 320 319 318 317 318 317 314 316 315 309 309 312 317 321 318 312 309 307 309 309 308 308 309 311 312 311 308 305 303
299 301 300 298 298 298 297 297 297 298 297 299 309 318 312 303 300 300 301 300 297 298 300 300 302 303 303 302 301 301 303 301 300 300 301 302 304 304 302 300 299 305 309 310 310 310 312 311 307 306 305 305 306 309 312 316 317 316 317 319 319 318 318 317 318 318 315 313 311 310 312 319 320 311 306 306 304 304 307 307 307 307 308 309 308 306 305 304
301 303 300 298 299 299 298 297 297 298 297 299 310 316 307 300 300 300 299 298 299 300 300 298 301 306 305 301 301 301 300 300 300 301 300 301 302 301 300 300 299 300 307 311 308 307 308 307 307 306 303 303 304 303 306 314 320 316 313 316 316 315 318 315 314 317 316 315 316 314 314 318 316 307 305 309 305 303 307 308 307 309 310 310 309 307 306 305
303 304 301 298 298 300 299 297 297 298 300 307 311 307 302 299 297 298 298 297 298 299 300 301 302 307 306 303 303 301 300 300 302 306 303 299 300 299 298 299 298 298 304 309 307 307 307 305 306 307 303 301 302 302 304 310 318 319 312 311 310 309 317 318 312 311 314 318 318 313 314 317 314 308 307 310 307 304 308 309 308 310 311 312 311 310 309 307
303 303 301 298 299 300 300 298 298 299 302 309 312 304 298 297 296 297 298 296 296 297 300 304 301 301 303 303 303 301 302 301 302 307 304 300 302 299 297 300 299 297 298 302 306 306 305 305 305 305 303 302 301 302 305 305 310 317 315 310 307 306 313 318 316 315 315 318 317 312 314 316 314 311 307 307 306 304 307 309 307 308 311 311 311 311 311 309
302 303 300 300 299 299 301 300 299 301 303 307 308 302 298 297 296 298 298 296 296 297 300 302 298 297 300 302 302 300 301 304 303 305 304 302 304 299 296 300 299 297 296 298 305 305 304 308 307 305 303 302 303 307 310 307 305 310 310 306 307 311 315 314 315 318 317 315 314 312 313 312 314 315 308 304 307 306 305 307 307 306 308 308 309 309 309 309
303 306 304 301 300 299 301 300 297 302 308 309 307 302 298 299 298 298 297 295 296 298 301 300 297 298 300 300 300 299 300 302 300 302 304 302 302 298 296 297 299 299 297 298 301 300 304 312 310 304 303 304 307 310 309 310 309 310 309 306 308 313 314 312 311 315 319 317 314 314 313 314 316 316 310 306 310 309 306 305 305 304 305 306 307 306 307 308
303 310 306 300 300 300 299 298 297 303 309 305 302 299 297 299 299 297 297 296 296 297 299 300 298 300 301 298 297 298 298 300 298 300 301 299 299 298 296 296 297 300 298 298 300 299 305 315 311 306 307 306 305 302 301 305 308 310 311 309 307 304 304 306 304 306 315 321 318 314 315 320 318 308 305 306 307 308 309 307 305 304 305 306 306 305 306 306
304 313 306 300 301 299 300 303 301 301 305 300 299 299 297 299 299 297 297 296 297 297 297 299 300 300 300 298 297 297 300 302 299 299 299 298 298 297 295 296 296 297 299 302 303 300 304 315 311 307 308 304 301 298 297 299 300 302 304 302 303 303 306 312 305 300 305 312 316 316 318 320 310 301 302 306 305 308 310 309 306 305 304 305 306 306 306 304
310 314 304 300 301 298 303 309 301 298 304 301 298 298 297 300 298 296 296 295 297 299 297 297 299 299 299 299 297 297 301 302 299 299 299 297 297 296 295 296 296 296 299 303 303 298 302 313 311 303 302 299 296 296 297 297 296 298 298 297 299 301 309 323 316 305 301 299 303 310 313 311 305 301 305 307 307 309 308 307 307 305 306 307 307 306 306 305
316 310 301 300 300 299 307 310 301 299 302 297 294 295 296 299 299 296 295 295 297 298 298 298 297 297 297 298 297 297 299 299 297 298 299 297 297 295 296 297 297 296 298 301 301 298 302 312 310 304 305 305 300 295 294 294 296 300 299 296 297 297 302 314 314 310 307 300 301 306 304 303 305 305 305 304 305 305 304 305 306 306 308 308 306 305 305 306
312 305 303 302 298 303 315 315 307 303 299 296 296 296 295 296 299 299 297 298 298 297 299 300 296 296 296 296 298 297 297 299 297 296 297 298 297 297 298 298 297 297 298 298 298 298 300 306 309 308 308 307 305 301 298 296 297 301 300 297 297 296 298 302 302 307 310 302 303 307 303 303 305 304 303 301 302 303 302 304 305 305 306 305 305 306 306 307
307 303 309 306 298 302 311 309 309 307 302 300 300 299 297 297 297 298 297 297 296 295 298 297 295 296 297 296 298 297 296 299 300 297 297 299 299 298 300 299 297 299 300 298 297 301 301 300 306 316 313 309 312 310 306 303 299 297 298 297 297 297 298 300 302 311 307 297 299 309 308 305 302 300 299 300 302 302 300 301 301 302 303 304 305 307 308 308
307 307 313 311 303 302 302 299 304 308 305 306 303 299 300 300 298 297 298 298 296 295 296 296 295 297 298 298 301 301 298 298 300 301 300 301 301 299 299 299 298 299 301 300 297 300 303 299 299 311 316 314 313 305 300 301 300 297 297 298 299 298 297 299 304 310 307 299 302 308 305 301 299 298 298 301 303 303 301 301 301 301 302 304 305 307 309 308
307 308 307 306 306 307 304 301 306 309 307 308 304 299 301 302 299 297 297 298 297 296 295 296 296 298 300 301 303 303 300 298 300 301 299 300 300 298 298 298 297 298 300 299 295 299 309 303 294 297 301 299 298 297 294 296 298 298 299 299 302 301 297 299 304 302 302 303 304 304 302 300 299 299 299 301 303 302 303 304 303 303 304 304 304 305 305 304
304 305 300 299 304 307 304 303 307 308 305 306 303 300 303 304 301 299 299 297 296 296 296 298 297 297 298 299 301 304 303 301 301 300 298 299 299 300 300 298 297 298 298 298 297 301 311 305 293 294 297 294 294 296 296 297 296 296 299 301 302 301 297 299 302 298 298 304 305 303 302 302 302 302 302 303 302 302 303 304 303 302 303 303 302 303 303 304
302 304 299 297 303 305 302 301 304 306 306 307 305 302 305 308 304 300 298 297 297 295 296 299 298 296 297 296 301 308 306 302 301 300 300 300 299 301 303 299 298 298 298 300 298 297 306 305 294 294 298 296 296 296 295 297 297 297 300 300 299 300 298 297 299 298 297 299 301 301 301 302 303 303 302 302 303 302 303 304 302 301 302 303 303 303 303 304
305 307 303 303 305 304 303 302 305 309 307 306 307 303 304 309 305 299 296 297 299 297 297 300 298 296 297 297 301 306 302 300 302 300 300 301 299 300 300 298 299 301 301 301 296 295 303 303 293 295 300 298 298 298 297 297 298 300 303 300 296 298 298 296 298 299 298 298 299 298 299 303 305 303 301 302 302 300 301 302 303 305 306 304 304 304 303 303
303 302 302 310 310 303 303 303 305 311 308 307 309 303 303 307 304 300 299 296 298 300 299 299 299 297 298 299 301 301 297 296 300 298 297 299 297 298 298 295 297 302 304 300 297 300 306 301 292 296 306 304 299 300 302 298 296 300 305 304 300 299 301 300 300 300 300 302 301 298 301 307 306 303 302 304 304 302 303 305 307 309 309 306 304 303 301 301
300 298 300 314 311 301 302 303 302 308 306 306 308 303 303 306 302 301 302 298 295 297 297 298 300 300 302 303 301 297 296 296 297 295 295 296 296 296 298 296 295 299 301 300 300 300 301 304 301 302 310 308 299 300 303 301 300 305 307 305 302 300 301 300 299 299 300 301 304 306 310 310 304 301 301 303 305 306 305 307 306 305 306 307 304 302 301 300
Wind_Speed
13 12 12 12 13 13 12 12 11 9 9 9 10 10 11 13 14 13 11 10 8 6 6 6 6 6 7 8 7 3 3 6 16 24 20 14 16 14 13 12 10 12 12 10 12 9 8 10 12 17 8 2 1 1 1 1 1 4 3 4 4 4 5 6 7 6 9 10 9 6 5 14 10 4 6 7 12 10 11 11 8 10 10 9 8 7 8 10
13 13 13 13 13 13 12 12 10 8 7 7 8 9 10 11 13 13 12 11 8 6 5 5 6 7 8 9 7 4 3 5 13 18 17 17 16 14 13 13 11 12 12 11 14 12 8 6 11 13 6 1 1 1 1 1 1 3 2 4 4 5 3 2 9 9 11 13 10 8 6 11 10 5 4 6 8 9 13 10 7 11 9 10 13 14 15 14
14 14 14 13 13 13 12 11 9 7 5 6 7 8 9 11 12 13 12 11 8 5 5 5 6 7 9 10 8 5 1 4 10 11 17 20 16 14 14 13 11 11 11 12 14 12 7 7 9 7 3 1 1 2 2 0 1 2 3 4 5 5 1 3 8 11 12 16 15 10 6 9 7 3 3 10 12 9 10 6 5 8 6 6 9 12 15 15
14 14 14 14 12 12 11 10 8 6 6 6 7 8 9 11 12 13 12 11 8 5 4 5 6 7 9 11 9 5 1 4 4 8 17 20 16 14 14 12 11 11 10 11 10 9 8 7 5 1 3 2 1 2 2 2 1 2 3 3 4 4 4 5 8 13 12 15 15 12 10 11 5 5 6 11 13 7 4 3 4 6 4 4 5 9 12 13
14 14 14 14 13 12 11 9 8 7 7 7 8 9 10 11 12 12 12 10 7 5 4 4 6 7 9 12 10 4 1 3 3 9 17 18 16 14 12 11 10 10 9 9 8 9 7 3 2 3 3 2 1 2 3 4 2 4 3 1 1 4 5 5 8 14 11 13 15 12 11 8 4 7 5 6 9 5 2 3 4 4 3 4 5 8 11 12
14 14 14 14 13 12 10 8 7 7 8 9 9 10 11 12 12 12 11 10 8 5 5 5 6 7 9 10 8 7 4 2 6 12 16 17 14 12 12 10 9 9 7 8 10 10 8 4 4 3 2 2 3 4 4 3 3 5 3 5 6 5 9 4 7 11 10 13 12 9 8 7 10 9 7 9 10 5 4 3 3 4 4 4 6 9 10 10
13 14 14 14 12 11 10 8 7 8 8 10 10 12 13 13 14 14 11 10 8 4 5 5 6 6 9 7 4 9 6 1 10 13 15 16 11 11 12 9 7 7 7 11 12 8 5 6 5 2 3 3 3 4 3 2 6 7 3 6 8 9 11 7 8 10 11 13 9 9 10 7 11 10 5 10 9 5 5 4 3 4 5 6 8 9 9 8
13 14 14 15 12 10 10 8 7 8 9 10 11 12 14 15 15 14 10 9 7 3 4 5 6 6 9 6 1 5 3 4 13 13 14 14 8 10 12 9 7 7 10 12 10 4 3 6 4 2 3 2 1 3 5 6 7 7 5 4 6 9 11 10 12 14 14 13 11 15 14 8 10 10 7 8 6 5 4 4 4 4 7 8 7 7 7 8
14 14 14 15 13 11 10 8 7 7 9 10 12 13 15 15 12 9 7 7 5 2 4 5 5 5 7 4 4 3 3 9 13 11 13 12 8 8 9 10 9 7 10 10 8 6 4 3 2 2 2 2 1 2 5 5 3 4 7 7 9 10 10 12 13 13 12 8 11 18 13 7 7 6 8 6 3 4 3 4 3 3 5 6 6 7 8 8
14 14 14 14 13 12 10 8 6 6 8 10 12 13 14 13 9 7 7 7 6 2 4 4 4 3 4 4 6 3 5 12 10 9 13 12 8 7 6 8 9 7 8 9 9 8 4 2 1 1 2 1 1 1 2 6 6 8 13 12 14 13 8 10 12 11 11 6 9 18 11 5 4 2 5 2 1 3 3 4 3 3 5 5 5 7 9 10
14 14 14 14 13 12 10 7 4 5 6 7 9 11 11 10 10 9 9 9 6 1 2 3 3 2 6 8 5 2 8 12 8 10 11 10 9 8 5 5 8 8 6 7 7 6 4 1 2 1 1 1 1 5 6 9 12 14 18 16 13 14 9 9 10 6 7 5 6 16 13 7 8 4 5 3 1 2 3 3 2 3 3 4 5 5 8 9
14 14 14 14 13 12 10 7 4 4 4 3 6 7 8 8 8 10 12 12 8 6 4 5 5 2 6 9 4 0 9 10 8 9 8 8 9 7 5 3 4 6 5 4 5 5 5 5 4 2 0 0 5 7 7 11 13 12 17 16 9 12 9 7 6 3 5 5 3 9 10 6 7 5 4 4 3 2 3 2 2 3 2 3 3 4 6 8
14 14 14 13 13 12 10 7 4 4 4 1 4 5 8 8 7 7 8 10 10 10 8 7 4 1 4 4 1 4 11 9 7 7 7 9 7 4 3 1 2 4 4 3 5 6 6 6 4 2 0 2 4 5 7 8 9 9 12 12 7 8 6 6 4 2 5 7 2 4 5 1 4 3 2 4 4 2 2 2 2 3 2 3 3 3 3 6
14 13 12 12 12 11 10 8 5 4 4 3 4 6 10 10 10 6 4 4 6 7 6 5 3 4 4 0 3 7 12 9 8 10 11 10 7 4 4 4 3 3 4 4 4 4 5 6 4 1 0 1 3 9 10 4 5 7 7 5 4 5 1 5 2 3 5 3 3 5 5 2 0 1 1 3 3 3 3 3 2 2 2 2 2 3 2 4
14 13 11 11 11 10 10 8 5 4 3 4 4 10 13 14 13 8 3 0 2 5 4 3 2 5 4 1 2 9 12 11 11 14 12 9 8 6 8 9 5 2 3 3 3 3 6 6 2 1 2 2 5 10 8 3 3 4 5 3 3 4 1 2 2 3 3 1 6 6 5 1 2 3 1 2 1 2 3 3 2 2 2 3 2 3 2 2
15 13 11 9 10 9 9 8 6 5 3 5 5 10 16 17 16 12 6 3 4 7 7 4 1 4 4 1 6 10 10 11 13 13 9 7 7 6 11 11 5 2 3 3 4 5 5 3 0 1 0 2 6 9 7 5 3 3 3 4 2 5 5 2 3 3 2 3 6 5 6 2 2 4 3 2 1 2 3 2 2 2 3 3 3 2 2 1
15 14 13 10 9 9 8 8 6 5 4 5 7 8 14 17 18 16 10 6 5 6 11 9 3 4 4 3 6 7 8 11 12 11 9 7 5 7 11 7 3 6 5 3 3 3 2 0 0 0 2 3 3 7 8 6 4 1 3 4 2 5 6 4 4 4 6 5 5 5 6 4 3 5 3 2 1 1 2 3 2 2 3 3 3 2 3 3
15 14 14 11 9 9 8 7 5 4 4 5 8 8 10 12 14 19 19 13 5 1 7 11 7 4 2 5 6 8 12 13 11 10 11 8 5 8 8 2 3 6 5 3 2 1 2 2 2 3 2 4 2 4 8 8 8 7 5 6 4 4 6 5 4 1 6 8 6 6 7 5 4 5 3 2 1 1 2 3 2 2 3 3 4 3 4 4
15 14 14 13 11 10 9 6 4 2 4 4 9 10 7 7 8 14 22 20 9 2 2 6 5 3 2 6 8 11 13 10 8 9 13 11 6 6 4 1 2 3 3 3 3 3 2 3 4 5 3 4 3 1 5 7 9 10 8 9 8 6 5 4 3 3 7 9 6 5 6 6 5 4 3 3 1 0 1 3 2 2 2 2 3 4 5 4
15 15 14 13 13 11 9 4 1 3 5 5 12 11 2 2 4 5 10 12 5 3 2 3 1 2 2 5 8 13 10 5 4 9 16 13 6 5 4 3 4 4 3 2 2 3 2 6 4 3 2 1 2 3 2 8 11 13 11 9 9 8 5 3 3 3 6 8 5 3 5 6 5 3 2 3 1 1 1 2 2 2 3 3 3 4 5 5
16 15 14 14 13 10 6 1 2 4 6 9 15 9 2 3 3 0 1 4 1 2 3 3 1 1 3 5 8 9 4 3 4 9 19 13 4 3 3 4 5 4 3 1 3 3 4 7 3 1 2 4 3 3 2 11 13 12 10 9 7 6 5 3 4 2 2 6 2 1 6 5 3 2 2 2 2 2 2 3 2 3 3 3 4 5 5 4
16 15 14 14 12 7 3 4 4 5 7 11 11 3 1 4 4 6 5 3 1 1 2 4 3 2 4 4 6 5 1 5 7 10 19 14 5 3 2 4 5 2 4 3 4 4 5 4 3 5 4 4 1 0 6 12 12 10 8 8 6 5 6 5 4 3 3 5 2 2 5 4 2 1 3 3 3 3 3 5 4 5 5 4 5 5 5 4
16 15 14 14 10 4 5 7 6 5 7 9 6 1 1 3 6 9 5 4 1 2 2 2 3 3 5 4 5 6 3 4 4 8 16 13 4 3 3 5 6 3 5 5 5 6 4 1 6 7 4 4 6 6 10 11 8 8 7 8 6 5 5 4 2 4 6 5 5 5 5 2 2 0 2 4 4 3 3 5 4 5 6 6 5 5 5 6
16 15 15 13 7 5 7 8 7 6 6 6 4 3 3 5 8 7 3 4 1 2 1 1 0 2 4 4 7 5 2 1 1 7 14 9 3 3 4 4 6 6 5 7 9 8 4 2 6 4 2 9 11 9 11 9 5 5 5 7 8 6 5 6 5 5 8 7 4 7 5 1 1 1 3 3 4 4 2 2 4 4 5 5 4 4 6 7
15 15 15 11 4 6 8 8 6 6 5 5 5 4 5 6 6 3 2 4 3 3 2 1 1 2 4 5 8 3 1 3 1 5 11 7 2 2 3 2 5 4 1 7 11 8 3 4 3 3 6 11 12 7 5 7 6 3 1 4 10 10 10 10 8 6 6 2 2 3 3 1 2 3 5 2 3 5 2 2 5 6 5 5 4 5 6 6
15 15 15 10 2 6 6 4 4 5 4 4 5 6 6 6 4 1 3 4 4 2 4 3 1 5 7 7 7 1 3 4 3 8 12 8 3 2 3 2 3 2 2 4 7 3 3 6 4 7 8 11 11 6 2 3 8 3 1 4 10 13 11 9 8 6 3 3 2 2 3 1 2 4 6 3 4 6 4 5 7 6 6 6 6 6 6 6
13 15 14 9 3 4 4 3 4 4 2 2 4 6 6 4 3 1 3 4 4 1 3 4 3 7 8 7 6 2 2 5 5 12 14 9 6 2 5 3 2 2 1 3 3 0 3 7 7 8 8 8 8 5 1 2 8 4 3 8 11 13 11 8 8 5 3 4 2 3 3 2 1 4 5 4 5 6 6 7 8 7 8 8 8 8 7 7
12 14 13 8 5 4 5 5 5 3 3 4 5 5 5 4 3 2 5 4 3 1 0 2 2 6 7 8 8 5 1 4 2 8 12 11 8 4 6 4 2 3 4 4 3 2 2 5 7 6 6 6 4 2 1 4 6 3 5 9 9 9 9 7 8 5 3 5 2 3 3 3 2 4 2 2 4 7 8 9 9 8 10 11 9 8 7 7
11 13 13 7 4 5 5 6 4 4 6 6 5 5 5 4 3 3 5 2 2 1 1 0 1 3 5 7 7 4 2 2 3 5 10 12 11 6 5 2 5 8 8 7 5 1 1 1 1 4 4 2 1 3 2 4 4 4 7 9 8 6 7 6 6 5 3 4 3 3 2 3 3 4 1 2 3 7 8 8 9 9 9 9 7 6 7 7
9 11 13 7 3 3 4 5 5 5 7 7 7 5 5 4 4 6 5 1 1 2 1 2 1 3 6 6 5 5 6 4 2 4 6 7 9 7 4 1 6 9 6 8 7 1 1 1 0 4 3 2 2 2 1 2 5 9 8 8 7 6 5 4 3 4 5 2 4 4 2 3 1 4 3 3 4 6 5 5 7 7 6 6 7 7 9 9
8 9 11 10 6 4 3 3 4 7 9 9 7 4 3 3 4 6 3 1 1 3 3 3 3 4 6 4 4 5 5 5 5 5 5 5 7 7 5 3 4 5 4 6 5 2 4 5 3 1 1 1 1 4 3 2 6 8 6 6 6 4 4 4 4 4 4 2 5 5 3 3 2 3 4 5 6 4 4 5 7 7 7 7 7 8 8 7
6 7 9 10 10 7 4 3 6 9 10 10 6 4 4 4 4 3 1 3 2 2 2 3 3 4 5 3 4 5 3 4 4 4 3 3 5 4 4 2 0 2 4 3 2 4 5 4 4 4 3 2 3 5 6 5 5 5 5 5 6 4 3 2 1 1 1 3 4 4 2 1 2 5 4 5 8 5 4 4 5 6 6 6 6 6 5 4
3 5 8 9 10 8 6 6 7 9 10 9 5 4 6 5 2 1 3 3 1 2 2 2 4 4 4 4 4 5 3 3 3 3 2 2 4 2 2 3 1 1 3 1 1 3 3 2 6 7 3 3 3 6 5 2 2 4 5 4 4 4 3 2 2 1 1 2 3 3 1 1 3 4 3 4 6 4 3 2 3 3 3 5 5 4 3 4
3 5 7 8 11 9 5 7 7 9 8 6 4 6 8 5 1 1 3 2 2 3 2 1 5 5 3 3 3 3 3 4 2 3 3 2 4 4 3 6 7 2 2 3 2 3 3 0 5 5 2 3 4 3 4 5 5 3 4 4 4 4 5 4 4 2 3 1 2 3 1 2 2 2 3 4 5 3 1 3 3 2 3 2 2 2 3 4
3 5 6 8 12 10 4 5 7 8 6 6 7 7 6 1 3 1 2 4 2 4 4 2 3 4 4 3 3 2 1 2 2 3 4 3 3 3 3 5 6 4 2 3 2 1 4 0 4 3 1 3 4 1 1 5 4 1 1 4 2 2 4 3 3 5 5 2 1 1 2 3 3 2 4 3 4 4 5 5 4 4 5 4 5 5 3 1
4 5 6 7 10 10 5 4 6 6 5 6 8 5 2 2 2 1 1 2 1 2 4 4 3 4 4 4 4 5 2 2 3 3 4 3 2 3 2 3 3 4 3 3 2 0 3 1 4 3 3 4 3 1 1 3 2 0 3 1 2 3 6 5 2 1 3 4 1 1 2 4 2 1 4 5 4 3 6 6 5 5 6 5 5 5 5 3
4 3 5 7 9 10 7 4 7 6 4 7 8 3 2 2 2 2 1 1 0 1 2 3 2 2 2 3 4 6 4 3 4 4 2 2 2 4 3 3 3 2 2 2 2 1 2 3 2 3 4 3 2 1 2 3 2 3 2 3 3 3 5 4 3 3 4 3 2 1 1 3 1 1 4 5 2 2 5 5 5 6 6 6 5 5 4 4
2 3 4 8 10 10 7 5 7 6 5 7 6 3 2 1 2 3 1 1 1 1 3 2 1 1 1 1 3 5 4 3 3 3 2 2 2 2 3 3 2 2 3 1 2 1 2 4 2 2 1 3 3 3 3 4 2 3 3 2 2 3 1 2 3 2 2 2 2 2 2 2 3 3 3 2 4 3 3 4 5 5 5 5 4 5 4 4
0 1 2 8 10 8 8 7 6 5 7 6 3 2 2 1 2 3 2 1 1 1 3 1 1 2 2 1 1 4 4 3 2 2 2 1 2 2 3 2 3 3 5 2 2 1 1 4 1 3 1 2 5 4 2 4 5 3 3 3 2 3 3 2 2 3 3 3 2 1 3 2 4 4 5 6 7 5 2 2 3 2 2 2 2 3 3 3
1 2 0 6 9 5 7 10 8 7 7 4 3 2 1 1 2 2 2 0 0 1 1 0 1 2 2 1 0 2 2 3 2 2 2 1 2 1 2 1 2 5 6 4 3 1 2 4 2 2 4 3 3 3 1 0 3 3 3 3 2 2 2 2 2 2 4 4 3 2 1 4 5 3 5 6 6 5 5 3 2 2 2 2 2 2 1 2
2 3 1 8 10 0 5 11 9 5 4 3 2 2 1 1 0 2 2 1 1 1 0 1 2 2 1 1 2 1 1 3 3 2 2 2 2 1 1 1 0 4 4 4 3 2 2 3 3 1 4 3 0 1 1 2 2 2 1 1 2 2 3 4 1 1 2 3 4 4 2 6 5 1 3 4 4 5 5 5 5 4 4 5 5 4 4 3
4 3 2 9 10 2 6 8 4 3 4 2 1 1 0 1 1 2 2 1 1 1 1 1 1 1 2 1 1 1 2 3 3 3 2 1 1 1 1 2 1 1 0 2 2 1 1 4 4 2 1 1 2 1 1 1 2 3 1 0 2 2 3 5 3 3 1 2 2 4 2 4 5 3 3 4 4 5 5 5 5 4 5 5 6 6 5 5
3 1 2 9 8 1 7 7 2 4 3 1 1 1 1 1 1 1 1 1 2 1 2 2 1 1 1 1 0 1 2 2 3 2 1 1 1 3 2 4 2 1 1 1 2 1 2 4 4 2 3 4 4 3 1 1 2 2 1 1 2 1 2 4 5 3 3 2 2 3 1 4 5 3 3 4 3 3 4 4 5 5 5 5 6 6 5 5
1 3 1 9 7 2 4 4 2 2 1 1 2 1 2 1 1 1 1 1 1 1 1 1 1 1 1 0 1 1 1 2 2 2 0 1 1 2 2 4 2 1 1 1 1 1 1 2 4 3 3 4 5 5 3 2 1 1 2 2 1 1 3 3 2 3 3 3 4 4 2 6 5 4 4 3 3 4 6 5 5 5 5 5 5 5 5 5
2 1 2 9 11 6 4 4 6 5 3 3 3 1 1 1 1 1 1 2 1 2 1 1 1 1 1 1 2 2 1 3 2 1 1 1 2 1 2 4 2 1 1 2 1 1 2 2 4 5 4 2 1 2 4 3 2 0 1 2 0 2 3 2 2 4 1 2 3 4 4 5 4 3 3 3 3 4 6 5 4 5 5 5 5 5 5 4
2 1 2 6 10 8 3 1 5 6 5 4 4 1 2 2 1 1 2 1 1 2 1 1 1 1 1 2 3 4 5 3 3 2 1 1 3 2 2 3 2 0 2 1 3 4 4 3 3 6 6 5 5 5 4 1 2 2 1 1 1 1 1 3 3 1 3 4 2 4 5 2 2 2 2 5 4 4 6 4 4 6 5 6 5 5 5 4
2 1 1 1 3 4 4 4 4 5 3 4 3 1 3 2 1 0 1 1 1 1 1 2 2 1 0 1 2 2 3 4 4 3 1 2 3 3 3 2 2 3 3 0 2 3 5 4 3 4 2 1 3 3 3 2 3 4 4 4 4 2 2 4 2 3 4 6 1 6 5 4 4 6 6 6 4 4 6 5 5 5 5 5 5 4 5 5
1 2 2 1 0 2 2 1 3 5 4 4 3 2 2 2 1 1 2 1 0 0 1 1 3 2 1 1 2 2 1 3 4 2 0 1 2 3 4 1 1 5 3 1 2 3 6 3 1 2 3 4 3 3 4 1 1 2 3 4 4 3 3 3 3 4 5 5 4 4 6 5 6 6 7 6 5 5 6 6 5 4 4 4 4 4 5 5
2 2 1 2 1 3 1 1 4 7 5 3 3 2 3 4 3 2 1 1 2 1 1 1 3 4 2 2 2 3 1 2 2 1 2 0 1 1 2 1 1 3 3 3 3 2 5 2 1 2 3 5 5 4 3 3 2 3 3 3 1 2 3 2 1 1 3 2 3 3 4 5 7 6 7 6 5 5 4 4 4 4 5 4 3 4 5 5
2 3 2 3 3 1 2 2 4 5 3 2 2 1 3 5 4 2 0 1 1 1 1 2 2 2 1 1 3 3 2 2 1 1 3 2 1 0 1 1 1 3 5 3 2 2 3 2 2 3 3 4 5 3 4 5 3 3 5 3 1 1 1 0 0 1 2 1 2 4 1 6 6 6 7 5 4 3 4 6 5 5 5 3 3 5 5 4
3 3 4 5 3 2 2 2 2 4 2 1 2 3 3 4 5 4 2 0 2 1 1 3 5 1 3 4 5 3 2 2 2 2 4 4 1 1 1 2 3 2 4 2 1 3 3 3 1 4 4 3 3 2 4 4 4 1 7 6 3 3 2 3 3 3 4 4 3 4 1 5 5 3 3 3 3 3 5 6 5 5 4 3 5 6 5 4
4 3 3 5 3 1 1 2 3 2 2 1 2 3 2 4 6 5 3 0 1 2 0 4 6 2 3 5 3 1 4 4 5 3 3 3 3 2 2 2 3 1 0 1 2 2 3 4 3 4 3 3 2 1 2 2 4 3 7 6 8 6 4 3 3 5 6 6 6 4 4 5 2 2 1 1 3 4 5 5 4 5 5 5 6 6 6 5
Wind_Direction
355 351 353 357 355 355 355 353 358 3 8 13 8 6 11 13 16 16 9 4 3 2 2 2 7 4 7 14 17 50 70 31 26 31 35 9 351 351 350 351 355 354 349 349 0 6 358 7 5 360 15 99 38 186 214 286 40 66 103 135 159 177 184 182 162 152 132 144 157 157 118 115 127 132 124 81 64 81 83 71 72 68 60 62 57 65 90 104
354 353 354 356 354 354 354 351 355 2 4 2 356 357 1 5 8 13 14 7 360 355 0 0 0 352 358 9 14 36 86 48 30 29 21 1 353 356 355 356 360 356 356 0 0 1 354 340 337 348 16 94 326 28 60 283 93 99 126 138 187 188 189 178 144 135 130 141 136 128 131 116 126 146 134 104 89 93 93 77 73 73 49 45 48 65 89 95
354 353 353 353 352 352 353 349 350 352 349 342 336 337 344 350 354 359 7 9 0 345 351 355 353 347 357 5 2 2 39 50 31 12 2 358 354 354 355 354 357 0 359 355 346 341 328 300 311 335 35 72 312 70 105 250 133 155 122 133 219 190 94 16 130 134 134 137 127 124 116 91 101 112 106 114 101 87 93 78 76 82 42 33 38 56 80 85
353 353 351 351 349 350 351 347 344 336 328 321 320 323 329 338 344 345 351 3 1 336 330 339 342 341 354 360 353 336 339 47 20 343 352 354 352 354 354 350 353 360 356 354 351 351 336 300 304 1 75 42 336 60 138 222 168 123 80 157 217 148 64 4 118 124 125 129 122 121 103 87 70 64 107 123 105 84 76 31 65 96 61 48 40 51 72 78
354 353 350 349 347 348 348 343 336 324 317 312 313 316 324 336 342 342 342 353 354 327 310 320 329 333 348 356 354 343 59 61 333 343 356 350 350 358 1 357 355 357 359 3 2 13 11 340 20 54 74 81 65 72 195 238 118 84 16 9 261 117 87 14 106 115 118 117 111 111 102 103 86 59 66 106 109 116 102 39 59 73 36 50 59 63 70 73
354 352 351 347 345 347 346 338 328 318 311 308 312 314 323 337 341 340 338 341 341 312 290 300 316 326 344 357 16 35 90 127 336 352 356 349 352 5 7 354 349 354 4 14 14 24 23 15 45 64 55 75 128 134 197 263 79 90 6 14 9 82 102 63 83 98 109 110 107 108 102 111 102 77 39 64 89 104 99 80 59 31 9 72 86 78 74 74
354 352 351 347 345 348 345 337 323 313 305 304 310 311 320 335 335 329 327 332 333 302 277 292 303 319 348 357 30 44 81 183 338 352 353 350 357 11 6 350 354 6 16 24 24 25 20 27 45 73 65 89 153 156 153 43 68 93 60 35 34 64 87 84 82 80 87 92 96 102 97 90 96 101 72 67 74 83 95 81 61 44 45 87 96 89 88 85
355 354 351 349 347 348 344 335 321 307 300 302 304 309 323 333 328 321 323 332 332 296 270 288 292 315 353 4 83 42 52 315 332 347 350 347 357 12 8 2 8 21 30 32 28 29 38 38 28 28 78 129 171 174 144 82 62 85 97 81 61 68 79 84 86 85 84 88 92 87 82 75 89 105 85 65 60 58 82 81 59 52 63 77 78 79 88 88
356 355 352 351 347 347 343 334 320 300 296 298 301 314 331 338 336 332 336 344 343 291 266 286 293 329 1 32 91 70 335 329 335 342 346 340 341 358 8 13 6 15 32 30 30 44 57 56 7 23 127 208 37 156 152 97 65 86 107 105 90 84 84 85 85 88 89 92 99 88 81 85 91 92 71 50 39 44 58 76 46 35 66 71 65 63 67 75
355 353 352 351 348 348 344 334 317 293 292 293 305 326 343 354 10 15 6 1 353 280 263 290 302 353 42 60 73 87 328 342 342 334 341 336 328 338 1 17 8 10 27 24 26 35 63 129 292 310 152 234 358 116 80 92 112 109 103 92 88 86 75 82 87 92 88 68 91 97 92 58 27 54 85 61 29 66 69 70 54 48 60 67 71 68 70 71
353 352 351 348 349 349 346 338 310 283 280 293 320 341 358 18 38 38 30 17 4 324 276 328 9 49 80 71 85 111 341 348 343 334 343 342 335 332 327 356 13 14 15 15 19 26 45 71 316 265 138 345 46 67 72 110 119 117 104 83 77 85 73 67 81 90 82 67 94 101 94 40 18 39 95 126 115 83 85 75 81 77 62 76 81 77 80 76
350 350 349 347 348 348 349 342 310 266 258 312 349 360 21 37 46 47 43 33 38 64 59 51 54 86 82 67 101 16 351 352 339 335 347 350 347 341 318 300 2 10 3 350 350 4 0 343 8 54 279 43 104 90 110 129 119 116 104 91 82 82 66 34 50 30 73 137 179 88 83 30 19 49 90 124 130 106 97 80 84 84 67 76 81 79 76 75
348 348 347 347 346 346 352 345 320 262 229 68 28 23 40 44 37 34 35 37 52 65 66 64 56 118 87 63 208 353 359 357 348 347 1 358 1 18 16 346 314 336 343 313 302 331 338 324 353 26 294 98 110 120 138 133 113 105 95 101 106 81 45 354 30 41 89 147 234 36 99 24 13 67 107 131 140 140 123 115 114 101 86 75 76 83 70 80
347 346 344 346 346 347 352 347 329 282 225 148 76 49 44 40 32 17 360 24 44 47 46 48 81 130 88 102 253 349 354 0 9 7 5 358 5 22 20 17 330 298 317 304 285 310 328 317 318 316 235 151 140 124 121 102 95 107 92 88 96 104 350 334 40 98 95 132 345 39 129 172 139 114 128 160 160 168 147 140 144 130 131 123 110 111 90 89
345 342 340 340 341 347 352 347 328 295 243 185 107 60 49 43 32 16 8 92 33 17 8 19 122 130 78 24 303 344 348 1 7 4 1 354 2 354 341 348 332 292 317 299 275 297 313 315 324 85 298 243 142 123 113 65 57 102 115 97 41 103 155 347 70 96 112 108 15 60 119 134 162 157 194 190 186 200 154 142 157 157 176 167 154 142 120 105
343 339 335 328 327 337 347 349 324 288 262 204 146 73 61 55 44 36 44 100 84 40 35 36 136 113 90 325 330 345 350 353 352 2 9 357 354 337 335 342 334 329 320 280 276 292 303 308 149 134 28 131 139 127 107 90 68 13 94 129 96 114 137 127 89 35 81 111 16 50 128 133 140 152 187 205 244 218 156 160 190 171 196 192 175 166 143 176
343 339 337 331 322 323 331 343 326 276 258 214 172 99 71 61 50 47 49 76 98 63 49 43 47 96 84 338 338 336 331 338 346 2 12 358 337 327 337 344 344 341 328 301 288 292 324 356 184 77 63 75 138 134 119 130 148 72 67 110 106 116 132 133 117 30 36 75 32 48 108 110 105 132 169 211 210 254 167 173 206 181 191 196 187 187 177 196
342 340 341 340 330 323 323 332 325 266 235 214 181 136 87 69 52 48 50 57 77 73 41 27 31 83 22 335 328 309 314 326 339 353 0 358 333 329 341 336 314 337 353 9 3 358 21 5 43 93 61 32 46 138 145 162 156 146 131 122 116 97 114 122 129 62 48 68 68 75 98 107 108 125 163 219 202 278 203 171 195 201 182 182 177 196 202 205
343 341 341 341 336 327 322 324 322 233 202 201 177 157 103 72 56 47 49 52 51 54 36 348 18 113 277 307 305 313 316 317 331 347 359 2 347 344 6 29 331 10 43 37 34 19 36 42 51 96 89 41 27 36 147 142 130 129 123 122 128 106 100 111 95 108 98 78 55 71 110 133 130 129 169 212 214 305 220 170 181 212 209 195 172 190 204 207
342 341 339 339 336 331 327 325 318 175 172 170 163 155 123 62 45 22 34 45 56 82 76 300 335 139 299 296 309 334 333 308 325 355 5 3 352 12 28 16 16 45 57 116 84 356 60 77 57 91 93 324 325 311 127 113 110 116 114 110 120 114 103 111 111 135 116 84 32 42 102 131 131 129 186 204 209 246 213 179 187 205 220 229 200 201 208 212
342 341 341 339 339 340 341 2 131 154 158 157 155 147 170 171 89 260 339 35 53 88 52 308 287 234 300 288 310 345 352 316 329 358 8 4 358 20 348 11 42 40 6 124 98 8 62 76 30 311 252 255 271 287 120 111 111 110 116 116 105 109 106 94 113 138 84 83 53 76 103 104 98 126 195 204 217 239 216 197 209 213 222 237 220 217 222 227
343 343 347 348 351 1 37 110 123 147 155 157 160 148 167 169 143 162 148 75 276 348 12 319 345 323 304 303 317 339 25 3 346 348 2 4 19 32 341 36 65 46 346 18 88 59 56 61 311 301 270 232 187 100 102 107 115 110 116 119 105 119 114 81 71 41 33 92 132 156 111 88 40 134 187 212 224 236 221 208 206 203 216 231 222 217 219 229
344 349 356 358 7 47 100 112 118 132 150 165 174 120 107 157 160 157 121 92 213 331 350 337 16 356 338 352 342 353 44 32 347 330 353 4 16 39 51 51 58 49 16 42 98 102 88 350 305 306 276 141 107 100 102 101 106 115 128 124 128 155 127 101 92 54 44 80 131 131 102 61 345 6 207 210 209 243 242 215 217 209 209 220 219 210 204 209
350 358 1 4 23 97 111 110 116 114 130 159 154 129 151 158 160 158 104 87 97 311 256 244 63 1 340 340 338 354 58 44 344 328 349 9 15 27 65 74 64 50 43 75 86 92 100 303 307 320 43 101 102 99 107 110 89 92 122 128 142 148 101 105 132 97 61 55 116 120 89 358 265 241 258 224 198 246 284 214 244 255 235 233 232 220 211 207
358 2 3 8 38 126 118 104 107 105 112 130 125 138 154 154 164 168 103 74 19 316 295 289 165 359 333 335 336 325 108 9 28 333 342 5 17 27 50 70 75 50 29 82 77 77 55 318 330 54 69 88 100 96 101 123 111 68 25 133 140 124 108 119 126 108 80 56 224 130 90 254 230 230 250 233 202 241 273 225 242 256 251 237 228 229 226 222
4 5 7 14 53 149 136 95 100 109 105 108 118 142 155 165 199 206 103 64 14 313 332 341 32 356 340 337 331 323 64 357 335 4 2 9 6 88 66 4 63 100 203 85 76 87 353 332 28 81 89 90 96 89 3 117 120 118 316 126 125 116 119 132 117 99 107 149 212 105 118 199 282 254 239 207 218 246 253 240 240 242 245 232 222 226 222 221
8 7 11 21 49 158 166 126 124 130 115 125 135 148 161 173 199 163 79 43 11 3 353 333 340 4 351 335 340 81 71 300 324 9 6 6 353 47 68 17 33 35 241 100 70 356 341 351 25 62 83 91 103 106 355 105 115 141 173 127 122 120 126 124 99 89 116 119 60 31 97 121 272 259 237 187 209 259 265 254 246 233 235 234 226 222 213 213
10 11 15 26 53 101 140 134 129 121 117 147 148 149 164 158 161 107 82 62 3 34 92 283 334 19 359 345 12 80 216 288 28 348 340 14 22 55 65 36 98 37 347 94 110 277 351 9 18 44 69 97 130 157 162 113 99 138 151 120 114 116 120 113 98 104 101 96 78 328 41 89 259 280 327 135 204 257 259 251 248 233 230 232 229 222 216 217
11 14 18 30 71 77 101 122 119 116 126 139 131 135 150 133 113 63 73 92 330 347 173 263 15 6 351 350 13 48 4 13 97 306 328 24 31 54 75 28 99 71 26 72 115 230 27 6 25 74 73 108 213 275 198 118 87 130 124 98 87 79 85 88 96 117 73 74 171 272 11 100 262 283 24 79 229 246 247 248 249 240 237 238 234 227 223 222
11 16 23 36 97 91 84 89 92 124 133 124 119 127 125 100 76 55 46 53 329 318 335 42 4 341 3 6 0 17 29 22 7 342 355 24 17 31 71 2 79 79 48 63 82 84 344 302 149 88 65 230 238 311 231 162 128 129 110 85 81 63 63 66 56 89 66 24 233 267 314 107 353 277 204 185 223 216 217 248 260 254 252 244 228 222 220 219
11 18 26 38 66 92 91 75 98 133 131 123 125 118 92 49 63 83 66 338 358 329 353 9 340 6 15 16 7 6 29 11 346 18 22 11 15 21 26 13 45 66 52 53 53 12 25 22 3 16 347 280 91 53 47 96 111 111 110 110 107 74 49 40 7 45 78 267 256 278 303 104 94 266 231 228 239 213 187 229 257 260 252 240 230 228 224 219
12 25 26 37 52 68 88 108 129 135 131 130 123 86 81 34 29 90 297 331 3 319 336 319 310 360 350 353 23 353 6 19 5 48 44 14 42 43 50 57 62 68 48 36 13 11 28 27 344 325 320 25 84 90 69 51 55 80 114 121 113 104 63 55 2 2 152 233 263 293 315 100 205 246 237 247 255 239 202 222 254 259 251 252 252 246 238 223
27 33 29 37 44 55 88 115 133 138 139 137 110 53 78 72 28 283 305 335 351 292 307 299 300 324 338 5 15 338 7 32 2 40 57 72 63 47 75 55 13 129 83 78 81 25 25 332 351 358 348 10 73 115 110 100 98 111 132 122 115 130 114 132 166 321 257 234 276 297 305 260 274 274 244 264 279 245 191 231 267 269 268 272 264 233 196 191
71 41 32 39 40 43 86 117 135 147 144 128 83 49 66 74 293 331 347 289 257 317 333 328 317 330 8 35 355 326 45 39 2 39 28 43 50 12 348 12 14 38 94 85 72 52 82 349 348 3 346 4 38 96 127 131 127 134 153 126 125 149 143 158 167 167 192 202 309 307 284 182 214 273 248 272 307 314 343 321 311 323 317 312 352 81 135 187
96 44 38 40 37 36 69 127 144 154 139 96 70 61 73 103 257 320 327 271 284 327 317 324 357 15 8 349 339 335 71 49 30 54 27 32 57 21 341 343 356 18 71 97 76 83 113 154 295 291 298 31 41 2 94 99 109 193 129 96 102 167 138 134 154 167 164 125 19 282 233 209 208 268 291 323 345 353 356 352 12 7 344 19 47 41 49 193
123 54 44 36 31 29 38 124 147 156 137 85 66 61 113 194 229 176 212 283 352 321 324 346 34 47 355 325 342 341 344 43 40 41 23 30 53 19 353 293 318 16 62 111 97 154 129 102 304 318 18 45 49 345 20 92 146 150 63 79 242 153 117 111 118 98 97 112 206 261 255 297 329 285 317 2 30 11 355 353 6 358 350 19 26 3 2 354
141 88 55 32 23 25 33 106 136 139 120 80 77 96 193 205 202 193 218 349 333 336 38 26 9 34 352 335 339 328 335 12 24 41 29 17 34 13 353 296 294 34 38 117 101 338 121 111 326 8 57 30 13 78 50 51 119 117 104 209 206 100 93 100 100 24 49 108 262 307 230 285 336 195 311 359 42 339 338 341 350 360 13 21 1 347 350 340
153 145 69 30 21 27 44 105 132 120 87 68 79 124 167 191 205 211 206 137 203 7 66 82 340 59 118 66 330 319 345 8 2 45 56 6 31 40 14 315 292 48 5 6 97 1 78 102 328 332 85 318 343 85 68 360 23 114 138 176 126 109 109 65 100 135 99 121 268 314 312 257 208 213 262 237 202 236 318 358 21 23 26 26 10 7 7 4
324 148 47 15 16 31 57 101 121 83 67 72 93 137 172 214 237 220 196 132 145 94 66 43 331 43 63 116 269 310 359 42 5 60 83 27 37 63 47 343 296 338 355 17 85 335 27 98 24 302 262 313 4 52 74 328 337 27 59 17 36 125 151 114 108 145 134 141 195 316 346 276 229 211 193 208 222 215 205 34 46 25 359 20 25 20 12 9
351 53 317 351 6 40 74 73 69 52 59 95 150 150 157 226 272 255 228 258 306 141 87 277 18 44 1 353 5 310 14 49 34 62 68 31 54 34 18 26 306 316 335 16 67 354 4 87 123 303 338 25 39 28 98 156 331 359 27 10 19 59 105 121 81 77 115 137 162 143 310 266 253 206 182 213 235 210 182 156 175 241 263 264 273 286 295 311
57 46 277 343 358 99 95 53 47 50 72 98 119 113 118 165 255 308 293 313 322 295 122 150 123 101 159 19 9 318 34 35 27 59 58 22 47 13 283 101 340 303 334 24 39 8 21 87 121 11 5 39 8 283 155 152 179 160 84 53 115 116 119 114 72 333 102 124 161 154 192 259 267 239 191 206 213 215 202 174 186 235 255 266 275 270 263 268
71 56 288 347 360 123 92 48 31 59 85 92 52 70 92 96 97 340 334 11 348 303 348 68 131 125 144 157 330 321 86 46 19 39 56 20 44 190 235 28 4 257 92 37 333 291 108 96 84 56 2 269 271 253 145 159 172 162 202 227 132 129 112 118 172 224 96 72 138 127 140 257 268 270 230 213 207 222 220 185 190 239 257 265 277 278 273 266
89 150 278 348 340 163 78 53 357 30 56 244 318 358 5 56 108 340 343 9 349 316 14 12 201 107 100 189 202 91 102 67 31 31 30 322 269 226 275 353 356 218 63 11 304 345 63 85 76 12 306 315 330 331 333 7 90 130 241 251 129 156 115 134 174 171 120 152 160 91 52 263 271 287 270 253 249 260 257 219 209 242 268 268 265 268 267 264
102 210 259 2 346 197 102 91 137 76 95 247 35 28 340 351 163 33 340 297 310 125 79 358 259 357 15 150 102 129 152 92 53 10 76 159 261 238 306 351 15 94 44 308 277 2 40 104 98 66 4 353 350 336 317 310 40 143 254 303 79 96 87 118 145 79 94 182 146 118 216 254 272 318 326 316 337 318 282 256 224 232 257 261 256 261 265 276
37 250 266 8 28 71 112 153 143 132 157 123 87 114 15 34 208 178 188 251 241 169 141 346 319 2 340 17 37 12 22 101 116 333 63 166 288 301 347 352 21 90 222 263 318 56 123 124 109 114 129 158 197 256 247 234 234 261 300 317 72 109 109 154 126 67 106 187 127 147 211 257 288 338 349 325 342 309 275 268 243 230 242 251 253 265 274 280
73 34 295 352 24 51 64 116 106 115 155 137 103 120 105 88 280 219 152 212 205 175 53 4 328 348 21 39 41 14 3 37 92 92 103 250 280 283 323 344 24 109 257 316 43 77 104 74 81 126 148 176 188 214 248 208 147 185 214 254 257 212 132 123 95 93 194 159 149 217 195 175 250 245 270 276 276 255 256 274 261 245 254 256 249 260 272 273
107 111 98 343 360 37 36 17 67 101 153 144 117 155 145 131 301 298 159 224 196 154 44 34 28 23 82 103 92 59 356 2 33 62 97 259 277 297 316 343 25 335 298 319 48 80 92 52 45 97 103 239 209 237 307 24 152 190 180 189 230 236 109 105 132 219 168 121 238 242 172 149 224 220 227 247 238 228 243 253 247 243 247 249 254 272 281 285
81 150 144 103 28 90 70 47 109 103 103 111 108 120 130 124 131 154 188 248 15 154 195 38 19 5 259 217 105 102 357 21 28 17 356 283 303 331 338 328 354 348 353 10 356 89 104 74 341 74 21 326 319 332 338 20 189 232 187 197 220 199 157 149 203 219 136 130 236 225 155 183 236 227 223 226 214 213 222 227 235 244 250 258 268 268 274 294
78 117 96 27 98 161 148 97 113 104 98 97 92 119 145 144 159 185 204 29 13 311 157 103 334 332 303 244 126 125 181 114 70 267 220 164 329 359 13 341 314 1 45 49 356 81 110 101 240 112 37 337 326 338 9 53 17 320 264 225 206 193 200 172 244 249 116 146 236 170 163 241 248 222 225 235 230 226 239 266 273 267 268 267 250 249 271 301
127 150 158 59 67 87 16 42 90 93 73 54 79 133 147 142 157 185 142 93 111 311 54 127 230 309 18 154 124 114 200 193 103 213 173 132 29 112 110 217 252 341 19 53 346 349 90 116 211 118 62 328 314 339 22 57 62 324 300 301 53 77 250 268 299 169 130 236 238 128 164 276 264 222 234 266 279 252 267 288 277 262 265 254 235 256 275 286
104 125 139 105 74 351 359 12 67 99 83 27 133 167 174 168 174 154 109 127 162 187 357 147 168 168 42 64 81 91 247 230 111 124 162 152 124 120 121 168 178 322 354 42 349 348 74 122 175 91 73 299 292 353 346 23 80 348 294 275 197 161 193 213 211 192 179 180 144 107 223 257 250 239 251 287 306 275 258 267 273 280 273 220 226 247 240 240
104 88 107 104 86 337 51 16 1 92 154 223 144 161 192 183 174 135 96 31 134 116 227 161 148 117 42 50 64 179 219 191 155 159 172 145 103 79 79 127 143 152 260 122 41 16 105 128 156 120 103 261 259 52 309 14 58 309 275 223 186 184 194 207 241 233 203 160 135 158 218 221 213 51 91 261 300 293 263 252 249 266 260 221 221 227 213 222